Fredericksburg, TX

7:38 AM CDT on July 30, 2016 (GMT -0500)
Fredericksburg

Weather History for KT82 - August, 2014

Change the Weather History Date:

Saturday, August 9, 2014

  Actual Average (KSAT) Record (KSAT)
Temperature  
Mean Temperature 83 °F 86 °F  
Max Temperature 95 °F 97 °F 106 °F (1953)
Min Temperature 71 °F 75 °F 67 °F (1971)
Degree Days  
Heating Degree Days 0 0  
Month to date heating degree days 0  
Since 1 June heating degree days 0  
Since 1 July heating degree days 0  
Cooling Degree Days 18 21  
Month to date cooling degree days 189  
Year to date cooling degree days 1949  
Since 1 June cooling degree days 1320  
Growing Degree Days 33 (Base 50)    
Moisture  
Dew Point 62 °F    
Average Humidity 51    
Maximum Humidity 79    
Minimum Humidity 31    
Precipitation  
Precipitation 0.00 in 0.06 in 2.00 in (1994)
Month to date precipitation 0.44  
Year to date precipitation 19.29  
Snow  
Snow 0.00 in - - ()
Month to date snowfall  
Since 1 June snowfall  
Since 1 July snowfall  
Snow Depth -    
Sea Level Pressure  
Sea Level Pressure 30.03 in    
Wind  
Wind Speed 7 mph (SSW)    
Max Wind Speed 16 mph    
Max Gust Speed 28 mph    
Visibility 10 miles    
Events      
T = Trace of Precipitation, MM = Missing Value Source: NWS Daily Summary

Daily Weather History Graph

Daily Weather History Graph

Search for Another Location

Airport or City:

Trip Planner

Search our weather history database for the weather conditions in past years. The results will help you decide how hot, cold, wet, or windy it might be!

Date:

Astronomy

Aug. 09, 2014 Rise Set
Actual Time 6:59 AM CDT 8:22 PM CDT
Civil Twilight 6:33 AM CDT 8:48 PM CDT
Nautical Twilight 6:03 AM CDT 9:18 PM CDT
Astronomical Twilight 5:31 AM CDT 9:50 PM CDT
Moon 7:27 PM CDT (8/9) 5:41 AM CDT (8/9)
Length of Visible Light 14h 14m
Length of Day
13h 23m
Waxing Gibbous, 98% of the Moon is Illuminated
Aug 9
Waxing Gibbous
Aug 10
Full
Aug 17
Last Quarter
Aug 25
New
Sep 2
First Quarter

Hourly Weather History & Observations

Time (CDT) Temp. Heat Index Dew Point Humidity Pressure Visibility Wind Dir Wind Speed Gust Speed Precip Events Conditions
12:15 AM 82.8 °F 85.1 °F 66.4 °F 58% 30.01 in 10.0 mi South 9.2 mph - N/A   Clear
12:35 AM 82.2 °F 84.7 °F 67.3 °F 60% 30.02 in 10.0 mi South 6.9 mph - N/A   Clear
12:55 AM 81.3 °F 84.0 °F 67.6 °F 63% 30.02 in 10.0 mi South 3.5 mph - N/A   Clear
1:15 AM 80.8 °F 83.5 °F 68.0 °F 65% 30.01 in 10.0 mi South 3.5 mph - N/A   Clear
1:35 AM 79.9 °F - 68.2 °F 67% 30.02 in 10.0 mi South 4.6 mph - N/A   Clear
1:55 AM 79.7 °F - 68.4 °F 68% 30.02 in 10.0 mi SSW 6.9 mph - N/A   Clear
2:15 AM 79.2 °F - 67.8 °F 68% 30.02 in 10.0 mi SSW 10.4 mph - N/A   Clear
2:35 AM 78.3 °F - 67.1 °F 68% 30.02 in 10.0 mi SSW 6.9 mph - N/A   Clear
2:55 AM 77.5 °F - 66.4 °F 68% 30.02 in 10.0 mi South 5.8 mph - N/A   Clear
3:15 AM 77.0 °F - 66.2 °F 69% 30.02 in 10.0 mi South 6.9 mph - N/A   Clear
3:35 AM 76.6 °F - 65.1 °F 67% 30.02 in 10.0 mi SSW 9.2 mph - N/A   Clear
3:55 AM 76.5 °F - 64.6 °F 67% 30.02 in 10.0 mi SSW 9.2 mph - N/A   Clear
4:15 AM 76.1 °F - 64.4 °F 67% 30.02 in 10.0 mi SSW 6.9 mph - N/A   Clear
4:35 AM 75.6 °F - 64.4 °F 68% 30.02 in 10.0 mi SSW 6.9 mph - N/A   Clear
4:55 AM 75.2 °F - 64.4 °F 69% 30.02 in 10.0 mi SSW 4.6 mph - N/A   Clear
5:15 AM 74.5 °F - 64.4 °F 71% 30.02 in 10.0 mi SSW 5.8 mph - N/A   Clear
5:35 AM 74.3 °F - 64.4 °F 71% 30.02 in 10.0 mi SSW 3.5 mph - N/A   Clear
5:55 AM 72.9 °F - 64.2 °F 74% 30.02 in 10.0 mi SW 4.6 mph - N/A   Clear
6:15 AM 72.1 °F - 63.9 °F 75% 30.03 in 10.0 mi Calm Calm - N/A   Clear
6:35 AM 72.5 °F - 64.4 °F 76% 30.03 in 10.0 mi SSW 3.5 mph - N/A   Clear
6:55 AM 71.8 °F - 64.4 °F 77% 30.04 in 10.0 mi SSW 4.6 mph - N/A   Clear
7:15 AM 71.4 °F - 64.6 °F 79% 30.04 in 10.0 mi SSW 4.6 mph - N/A   Clear
7:35 AM 72.0 °F - 64.6 °F 77% 30.05 in 10.0 mi Calm Calm - N/A   Clear
7:55 AM 72.7 °F - 65.1 °F 77% 30.06 in 10.0 mi SSW 3.5 mph - N/A   Clear
8:15 AM 74.3 °F - 65.5 °F 74% 30.06 in 10.0 mi SSW 6.9 mph - N/A   Clear
8:35 AM 75.6 °F - 66.2 °F 73% 30.06 in 10.0 mi WSW 8.1 mph - N/A   Clear
8:55 AM 77.2 °F - 67.1 °F 71% 30.07 in 10.0 mi SW 10.4 mph 16.1 mph N/A   Clear
9:15 AM 78.4 °F - 65.8 °F 65% 30.07 in 10.0 mi SSW 9.2 mph 17.3 mph N/A   Clear
9:35 AM 79.9 °F - 65.7 °F 62% 30.08 in 10.0 mi SW 12.7 mph - N/A   Clear
9:55 AM 81.1 °F 82.9 °F 65.1 °F 58% 30.08 in 10.0 mi SW 11.5 mph - N/A   Clear
10:15 AM 82.4 °F 83.7 °F 63.9 °F 53% 30.09 in 10.0 mi SSW 12.7 mph 19.6 mph N/A   Clear
10:35 AM 83.3 °F 84.3 °F 62.8 °F 50% 30.09 in 10.0 mi SSW 15.0 mph 19.6 mph N/A   Clear
10:55 AM 84.4 °F 84.8 °F 61.7 °F 46% 30.09 in 10.0 mi South 12.7 mph - N/A   Clear
11:15 AM 85.6 °F 86.1 °F 62.1 °F 45% 30.09 in 10.0 mi South 10.4 mph - N/A   Clear
11:35 AM 87.1 °F 86.3 °F 58.3 °F 38% 30.09 in 10.0 mi SSW 12.7 mph 21.9 mph N/A   Clear
11:55 AM 87.8 °F 86.7 °F 57.6 °F 36% 30.08 in 10.0 mi South 13.8 mph 19.6 mph N/A   Clear
12:15 PM 88.5 °F 87.8 °F 59.4 °F 37% 30.08 in 10.0 mi South 8.1 mph 18.4 mph N/A   Clear
12:35 PM 89.2 °F 87.9 °F 57.6 °F 34% 30.08 in 10.0 mi SSW 9.2 mph - N/A   Clear
12:55 PM 90.0 °F 89.1 °F 59.0 °F 35% 30.07 in 10.0 mi SSW 9.2 mph 27.6 mph N/A   Clear
1:15 PM 88.7 °F 88.3 °F 59.9 °F 38% 30.06 in 10.0 mi South 8.1 mph 25.3 mph N/A   Scattered Clouds
1:35 PM 89.4 °F 89.2 °F 60.4 °F 38% 30.06 in 10.0 mi SW 16.1 mph - N/A   Scattered Clouds
1:55 PM 91.4 °F 91.0 °F 60.3 °F 35% 30.05 in 10.0 mi SSW 12.7 mph 20.7 mph N/A   Scattered Clouds
2:15 PM 91.0 °F 90.5 °F 59.7 °F 35% 30.04 in 10.0 mi South 9.2 mph 20.7 mph N/A   Scattered Clouds
2:35 PM 92.3 °F 91.3 °F 58.5 °F 32% 30.04 in 10.0 mi SSW 9.2 mph 18.4 mph N/A   Scattered Clouds
2:55 PM 93.4 °F 92.5 °F 58.6 °F 31% 30.03 in 10.0 mi South 8.1 mph 18.4 mph N/A   Scattered Clouds
3:15 PM 93.6 °F 92.7 °F 58.8 °F 31% 30.02 in 10.0 mi South 6.9 mph 16.1 mph N/A   Scattered Clouds
3:35 PM 93.6 °F 92.7 °F 59.0 °F 31% 30.02 in 10.0 mi SW 11.5 mph - N/A   Scattered Clouds
4:15 PM 94.5 °F 94.0 °F 59.7 °F 31% 29.99 in 10.0 mi SSW 10.4 mph 18.4 mph N/A   Mostly Cloudy
4:35 PM 94.3 °F 93.7 °F 59.2 °F 31% 29.98 in 10.0 mi South 8.1 mph - N/A   Mostly Cloudy
4:55 PM 94.3 °F 93.7 °F 59.2 °F 31% 29.97 in 10.0 mi SSW 5.8 mph - N/A   Scattered Clouds
5:15 PM 93.7 °F 93.0 °F 59.0 °F 31% 29.97 in 10.0 mi South 10.4 mph 17.3 mph N/A   Scattered Clouds
5:35 PM 95.0 °F 94.8 °F 59.5 °F 31% 29.96 in 10.0 mi SSE 8.1 mph 16.1 mph N/A   Scattered Clouds
5:55 PM 92.7 °F 91.8 °F 58.5 °F 32% 29.95 in 10.0 mi SSE 6.9 mph - N/A   Scattered Clouds
6:15 PM 92.5 °F 91.6 °F 58.5 °F 32% 29.95 in 10.0 mi SSE 8.1 mph - N/A   Clear
6:35 PM 92.8 °F 92.1 °F 58.8 °F 32% 29.95 in 10.0 mi South 9.2 mph - N/A   Clear
6:55 PM 93.0 °F 92.7 °F 59.7 °F 33% 29.95 in 10.0 mi South 6.9 mph - N/A   Clear
7:15 PM 91.9 °F 91.5 °F 59.9 °F 34% 29.96 in 10.0 mi South 9.2 mph 16.1 mph N/A   Clear
7:35 PM 90.9 °F 90.3 °F 59.5 °F 35% 29.97 in 10.0 mi South 9.2 mph - N/A   Clear
7:55 PM 90.5 °F 89.5 °F 58.3 °F 34% 29.97 in 10.0 mi South 6.9 mph - N/A   Clear
8:15 PM 90.0 °F 88.3 °F 56.1 °F 32% 29.97 in 10.0 mi SSE 3.5 mph - N/A   Clear
8:35 PM 88.7 °F 87.1 °F 55.8 °F 33% 29.97 in 10.0 mi Calm Calm - N/A   Clear
8:55 PM 87.4 °F 86.1 °F 57.0 °F 35% 29.99 in 10.0 mi Calm Calm - N/A   Clear
9:15 PM 86.4 °F 85.2 °F 57.4 °F 37% 29.99 in 10.0 mi Calm Calm - N/A   Clear
9:35 PM 85.3 °F 84.4 °F 57.6 °F 39% 30.00 in 10.0 mi Calm Calm - N/A   Clear
9:55 PM 84.7 °F 83.9 °F 57.4 °F 39% 30.01 in 10.0 mi Calm Calm - N/A   Clear
10:15 PM 83.1 °F 82.7 °F 57.7 °F 42% 30.02 in 10.0 mi Calm Calm - N/A   Clear
11:15 PM 83.3 °F 83.2 °F 59.5 °F 44% 30.04 in 10.0 mi SSE 3.5 mph - N/A   Clear
11:35 PM 82.8 °F 83.1 °F 60.6 °F 47% 30.04 in 10.0 mi South 4.6 mph - N/A   Clear
11:55 PM 82.9 °F 83.3 °F 60.8 °F 47% 30.04 in 10.0 mi South 6.9 mph - N/A   Clear